GW3793 Weather Reports


Display with metric or nautical units.
time (UTC)temp
F
wind
direction
speed
MPH
gust
MPH
rain 1hr
in
rain 24hr
in
rain mn
in
humidity
%
barometer
mb
20260506050903 52 40 0.0 2.0 0.00 0.00 0.00 48 1012.3
20260506044718 54 0 0.0 0.0 0.00 0.00 0.00 45 1012.3
20260506043603 54 5 0.0 1.0 0.00 0.00 0.00 44 1012.3
20260506042703 54 0 0.0 0.0 0.00 0.00 0.00 45 1012.4
20260506041804 55 351 0.0 2.0 0.00 0.00 0.00 45 1012.4
20260506040903 56 0 0.0 0.0 0.00 0.00 0.00 45 1012.3
20260506040003 56 350 0.0 2.0 0.00 0.00 0.00 44 1012.2
20260506035616 56 350 0.0 2.0 0.00 0.00 0.00 44 1012.3
20260506034503 58 347 1.0 2.0 0.00 0.00 0.00 43 1012.2
20260506033603 58 354 1.0 2.0 0.00 0.00 0.00 41 1012.3
20260506032703 59 355 1.0 2.0 0.00 0.00 0.00 39 1012.1
20260506032018 60 360 0.0 2.0 0.00 0.00 0.00 38 1012.2
20260506030904 62 1 0.0 2.0 0.00 0.00 0.00 35 1012.2
20260506030003 63 5 0.0 2.0 0.00 0.00 0.00 34 1012.0
20260506025403 64 358 0.0 3.0 0.00 0.00 0.00 33 1012.1
20260506024503 65 211 0.0 3.0 0.00 0.00 0.00 31 1012.3
20260506023603 66 326 0.0 5.0 0.00 0.00 0.00 30 1012.2
20260506022703 67 280 1.0 5.0 0.00 0.00 0.00 29 1012.3
20260506021803 67 269 1.0 2.0 0.00 0.00 0.00 29 1012.2
20260506020903 67 170 0.0 2.0 0.00 0.00 0.00 29 1012.4
20260506020003 68 260 1.0 3.0 0.00 0.00 0.00 29 1012.4
20260506015403 68 293 1.0 4.0 0.00 0.00 0.00 28 1012.2
20260506014503 69 269 1.0 4.0 0.00 0.00 0.00 27 1012.1
20260506013603 69 307 1.0 4.0 0.00 0.00 0.00 26 1012.3
20260506012703 69 321 1.0 5.0 0.00 0.00 0.00 26 1012.2
20260506012017 69 334 1.0 7.0 0.00 0.00 0.00 27 1012.3
20260506011119 69 317 1.0 7.0 0.00 0.00 0.00 27 1012.4
20260506010218 69 23 1.0 4.0 0.00 0.00 0.00 26 1012.4
20260506005617 69 210 1.0 4.0 0.00 0.00 0.00 27 1012.5
20260506004717 69 302 1.0 7.0 0.00 0.00 0.00 26 1012.5
20260506003603 70 354 2.0 6.0 0.00 0.00 0.00 23 1012.3
20260506002703 70 321 1.0 7.0 0.00 0.00 0.00 25 1012.6
20260506001803 70 294 2.0 5.0 0.00 0.00 0.00 23 1012.4
20260506000903 70 217 1.0 4.0 0.00 0.00 0.00 26 1013.0
20260506000219 71 239 1.0 4.0 0.00 0.00 0.00 27 1012.9
20260505235617 71 263 2.0 4.0 0.00 0.00 0.00 26 1012.8
20260505234503 71 290 1.0 3.0 0.00 0.00 0.00 25 1013.2
20260505233818 71 278 1.0 4.0 0.00 0.00 0.00 26 1013.2
20260505232703 71 232 2.0 5.0 0.00 0.00 0.00 27 1013.3
20260505232018 71 178 3.0 9.0 0.00 0.00 0.00 25 1013.4
20260505230903 71 187 3.0 10.0 0.00 0.00 0.00 26 1013.4
20260505230003 71 252 2.0 8.0 0.00 0.00 0.00 26 1013.3
20260505225403 72 237 2.0 5.0 0.00 0.00 0.00 26 1013.5
20260505224718 72 244 2.0 6.0 0.00 0.00 0.00 27 1013.5
20260505223817 72 224 2.0 6.0 0.00 0.00 0.00 26 1013.8
20260505222703 72 235 2.0 8.0 0.00 0.00 0.00 26 1013.7
20260505222018 72 213 2.0 10.0 0.00 0.00 0.00 26 1013.9
20260505220903 72 244 2.0 5.0 0.00 0.00 0.00 27 1013.9
20260505220003 73 217 2.0 7.0 0.00 0.00 0.00 26 1014.2
20260505215403 73 201 2.0 6.0 0.00 0.00 0.00 26 1014.1
20260505214503 73 198 3.0 7.0 0.00 0.00 0.00 27 1014.3
20260505213603 72 209 2.0 6.0 0.00 0.00 0.00 27 1014.3
20260505212703 73 176 3.0 7.0 0.00 0.00 0.00 26 1014.2
20260505211803 72 184 3.0 8.0 0.00 0.00 0.00 28 1014.6
20260505210903 72 193 2.0 8.0 0.00 0.00 0.00 29 1014.8
20260505210003 71 233 2.0 4.0 0.00 0.00 0.00 30 1014.6
20260505205404 71 206 3.0 7.0 0.00 0.00 0.00 30 1014.8
20260505204503 70 254 1.0 4.0 0.00 0.00 0.00 31 1015.0
20260505203604 69 262 2.0 6.0 0.00 0.00 0.00 32 1014.9
20260505202703 69 261 2.0 5.0 0.00 0.00 0.00 31 1015.0
20260505201803 69 218 2.0 5.0 0.00 0.00 0.00 32 1015.1
20260505201116 69 270 2.0 5.0 0.00 0.00 0.00 30 1014.9
20260505200218 70 213 2.0 5.0 0.00 0.00 0.00 29 1014.9
20260505195403 70 176 2.0 6.0 0.00 0.00 0.00 32 1015.0
20260505194503 70 179 4.0 7.0 0.00 0.00 0.00 31 1015.2
20260505193603 70 183 4.0 7.0 0.00 0.00 0.00 33 1015.2
20260505192703 70 175 4.0 9.0 0.00 0.00 0.00 32 1015.3
20260505191803 69 171 4.0 9.0 0.00 0.00 0.00 32 1015.3
20260505190903 69 179 4.0 9.0 0.00 0.00 0.00 31 1015.3
20260505190004 69 175 3.0 7.0 0.00 0.00 0.00 33 1015.7
20260505185403 68 174 3.0 8.0 0.00 0.00 0.00 35 1015.6
20260505184503 67 168 3.0 8.0 0.00 0.00 0.00 32 1015.6
20260505183603 66 166 3.0 7.0 0.00 0.00 0.00 33 1015.6
20260505182703 67 195 3.0 7.0 0.00 0.00 0.00 35 1015.8
20260505181803 67 167 3.0 10.0 0.00 0.00 0.00 33 1015.7
20260505180903 67 174 4.0 7.0 0.00 0.00 0.00 35 1015.8
20260505180003 66 169 4.0 9.0 0.00 0.00 0.00 35 1015.9
20260505175403 66 169 4.0 7.0 0.00 0.00 0.00 35 1016.2
20260505174503 65 167 4.0 7.0 0.00 0.00 0.00 36 1015.8
20260505173603 64 161 3.0 6.0 0.00 0.00 0.00 35 1015.8
20260505172703 64 176 4.0 7.0 0.00 0.00 0.00 33 1015.9
20260505171803 63 177 4.0 7.0 0.00 0.00 0.00 36 1016.0
20260505170903 63 162 4.0 6.0 0.00 0.00 0.00 34 1016.2
20260505170003 62 173 3.0 6.0 0.00 0.00 0.00 38 1016.0
20260505165403 62 170 3.0 6.0 0.00 0.00 0.00 38 1016.2
20260505164718 62 174 3.0 6.0 0.00 0.00 0.00 38 1015.9
20260505163603 60 164 3.0 6.0 0.00 0.00 0.00 42 1016.1
20260505162703 60 164 3.0 6.0 0.00 0.00 0.00 43 1016.2
20260505161803 60 168 4.0 7.0 0.00 0.00 0.00 43 1016.2
20260505160903 59 169 4.0 7.0 0.00 0.00 0.00 44 1016.1
20260505152703 56 160 2.0 5.0 0.00 0.00 0.00 52 1016.4
20260505151803 54 142 2.0 6.0 0.00 0.00 0.00 50 1015.9
20260505150903 53 173 3.0 5.0 0.00 0.00 0.00 60 1016.0
20260505124503 38 115 0.0 2.0 0.00 0.00 0.00 73 1015.6
20260505123603 38 107 0.0 1.0 0.00 0.00 0.00 72 1015.6
20260505122703 38 68 0.0 2.0 0.00 0.00 0.00 73 1015.2
20260505121803 38 34 0.0 2.0 0.00 0.00 0.00 72 1015.6
20260505121117 38 0 0.0 0.0 0.00 0.00 0.00 72 1015.3
20260505120003 39 40 0.0 1.0 0.00 0.00 0.00 71 1015.3
20260505115403 39 0 0.0 0.0 0.00 0.00 0.00 71 1015.3
20260505114718 39 135 0.0 1.0 0.00 0.00 0.00 72 1015.2
20260505113817 39 0 0.0 0.0 0.00 0.00 0.00 72 1015.3
20260505112703 40 0 0.0 0.0 0.00 0.00 0.00 72 1015.2
20260505111803 40 14 0.0 1.0 0.00 0.00 0.00 72 1015.1
20260505110903 40 25 0.0 2.0 0.00 0.00 0.00 72 1015.2
20260505110218 40 21 0.0 2.0 0.00 0.00 0.00 71 1015.3
20260505101803 41 23 0.0 1.0 0.00 0.00 0.00 75 1015.1
20260505100903 41 18 0.0 1.0 0.00 0.00 0.00 74 1015.0
20260505100003 42 0 0.0 0.0 0.00 0.00 0.00 75 1015.0
20260505095618 42 0 0.0 0.0 0.00 0.00 0.00 71 1014.8
20260505094717 42 173 0.0 1.0 0.00 0.00 0.00 68 1014.9
20260505093818 42 179 0.0 2.0 0.00 0.00 0.00 66 1014.8
20260505092918 42 154 0.0 2.0 0.00 0.00 0.00 66 1014.9
20260505091803 42 43 0.0 1.0 0.00 0.00 0.00 67 1014.9
20260505090903 43 23 0.0 1.0 0.00 0.00 0.00 68 1015.0
20260505090003 43 130 0.0 2.0 0.00 0.00 0.00 67 1015.0
20260505085617 43 166 0.0 2.0 0.00 0.00 0.00 66 1015.2
20260505084503 43 179 0.0 1.0 0.00 0.00 0.00 65 1014.9
20260505083603 44 180 0.0 1.0 0.00 0.00 0.00 64 1014.9
20260505082703 44 166 0.0 1.0 0.00 0.00 0.00 63 1014.9
20260505081803 45 157 0.0 2.0 0.00 0.00 0.00 62 1014.7
20260505081118 45 175 0.0 2.0 0.00 0.00 0.00 62 1014.8
20260505080003 45 135 0.0 1.0 0.00 0.00 0.00 61 1014.9
20260505075403 46 159 0.0 2.0 0.00 0.00 0.00 62 1014.9
20260505074503 46 149 0.0 2.0 0.00 0.00 0.00 59 1014.7
20260505073603 47 152 0.0 1.0 0.00 0.00 0.00 58 1014.8
20260505072703 48 157 0.0 2.0 0.00 0.00 0.00 57 1014.7
20260505071803 49 149 1.0 2.0 0.00 0.00 0.00 55 1014.3
20260505070903 49 104 1.0 4.0 0.00 0.00 0.00 54 1014.4
20260505070003 49 20 1.0 3.0 0.00 0.00 0.00 54 1014.3
20260505065403 49 25 1.0 2.0 0.00 0.00 0.00 54 1014.6
20260505064503 49 14 1.0 2.0 0.00 0.00 0.00 55 1014.3
20260505063603 49 14 2.0 3.0 0.00 0.00 0.00 55 1014.2
20260505062703 49 13 1.0 2.0 0.00 0.00 0.00 55 1014.3
20260505061803 49 12 1.0 2.0 0.00 0.00 0.00 55 1014.4
20260505060903 50 16 1.0 2.0 0.00 0.00 0.00 55 1014.2
20260505060003 50 16 1.0 2.0 0.00 0.00 0.00 55 1014.0
20260505055403 50 34 0.0 2.0 0.00 0.00 0.00 55 1014.2
20260505054503 50 22 1.0 2.0 0.00 0.00 0.00 54 1014.0
20260505053603 51 21 1.0 2.0 0.00 0.00 0.00 54 1014.2